Regional Weather Roundup
Issued by NWS Sioux Falls, SD

Home | Current Version | Previous Version | Graphics & Text | Print | Product List | Glossary On
Versions: 1 2 3 4 5 6 7 8 9 10 11 12 13 14 15 16 17 18 19 20 21 22 23 24 25 26 27 28 29 30 31 32 33 34 35 36 37 38 39 40 41 42 43 44 45 46 47 48 49 50
000
ASUS43 KFSD 302202
RWRFSD

WEATHER ROUNDUP FOR SE SOUTH DAKOTA/SW MINNESOTA/NW IOWA
NATIONAL WEATHER SERVICE SIOUX FALLS SD
400 PM CST FRI JAN 30 2015

NOTE: "FAIR" INDICATES FEW OR NO CLOUDS BELOW 12,000 FEET WITH NO
SIGNIFICANT WEATHER AND OR OBSTRUCTIONS TO VISIBILITY.


SDZ038>040-050-052>070-302300-
SOUTHEAST SOUTH DAKOTA

CITY           SKY/WX    TMP DP  RH WIND       PRES   REMARKS
CHAMBERLAIN    NOT AVBL
HURON          SUNNY     44  29  55 S9        30.16F
MADISON        FAIR      36  34  93 S17G25    30.18F
MITCHELL       SUNNY     47  29  49 S12       30.17F
SIOUX FALLS    MOSUNNY   38  28  67 S16       30.22F
WINNER         FAIR      55  25  31 SW14      30.12S
YANKTON        SUNNY     45  27  49 S17       30.21F
$$

MNZ071-072-080-081-089-090-097-098-302300-
SOUTHWEST MINNESOTA

CITY           SKY/WX    TMP DP  RH WIND       PRES   REMARKS
FAIRMONT       PTSUNNY   30  21  69 S16       30.28F WCI  19
JACKSON        SUNNY     32  23  69 S16       30.27F WCI  21
LUVERNE        SUNNY     36  28  75 S16       30.24F
MARSHALL       SUNNY     36  25  64 S22       30.21F
MONTEVIDEO     SUNNY     34  27  75 S10G20      N/A  WCI  26
PIPESTONE      SUNNY     34  28  80 S18G24    30.19F WCI  23
REDWOOD FALLS  SUNNY     33  23  66 S18G24    30.24F WCI  22
TRACY          SUNNY     35  28  74 S16G22    30.21F WCI  25
WINDOM         SUNNY     32  25  74 S13G21    30.24F WCI  22
WORTHINGTON    SUNNY     32  25  74 S16       30.25F WCI  21
$$

IAZ001>003-012>014-020>022-031-032-NEZ013-014-SDZ071-302300-
NORTHWEST IOWA

CITY           SKY/WX    TMP DP  RH WIND       PRES   REMARKS
ESTHERVILLE    SUNNY     31  23  72 S18       30.29F WCI  19
SIOUX CITY     MOSUNNY   39  27  62 S13       30.30F
SPENCER        SUNNY     35  25  66 S15       30.29F WCI  25
$$

ABBREVIATIONS USED IN REMARKS
   TC - TEMPERATURE IN CELSIUS
  WCI - WIND CHILL INDEX
   HX - HEAT INDEX
  VSB - VISIBILITY



USA.gov is the U.S. government's official web portal to all federal, state and local government web resources and services.